073  
ASUS42 KCHS 160027  
RWRCHS  
 
REGIONAL WEATHER ROUNDUP  
NATIONAL WEATHER SERVICE CHARLESTON SC  
800 PM EDT MON JUL 15 2019  
 
NOTE: "FAIR" INDICATES FEW OR NO CLOUDS BELOW 12,000 FEET WITH NO  
SIGNIFICANT WEATHER AND/OR S TO VISIBILITY
.  
 
NOT ALL STATIONS ARE QUALITY CONTROLLED. USE DATA WITH CAUTION,  
ESPECIALLY DEWPOINT OBSERVATIONS.  
 
SCZ027-030-031-034>040-042>050-160100-   
..SOUTHEAST SOUTH CAROLINA
 
 
 
CITY SKY/WX TMP DP RH WIND PRES REMARKS
 
N CHARLESTON MOCLDY 80 76 87 CALM 30.05R  
6HR MIN TEMP: 75; 6HR MAX TEMP: 95; 6HR PCP: 1.46;  
 
WATERFRONT PRK N/A 84 76 77 CALM 29.89S HX 93  
MOUNT PLEASANT FAIR 81 79 94 CALM 30.05R  
JOHNS ISLAND FAIR 82 79 89 CALM 30.06R HX 93  
PINOPOLIS N/A 84 75 74 CALM 29.97F HX 92  
MONCKS CORNER FAIR 81 77 89 MISG 30.06R  
SUMMERVILLE FAIR 81 75 83 CALM 30.07R  
BEAUFORT MCAS MOCLDY 87 78 74 NW5 30.05R HX 100  
6HR MIN TEMP: 86; 6HR MAX TEMP: 96; 6HR PCP: TRACE;  
 
BEAUFORT ARPT MOCLDY 88 75 66 CALM 30.06R HX 97  
HILTON HEAD IS PTCLDY 88 77 70 S7 30.05S HX 100  
WALTERBORO FAIR 84 73 70 CALM 30.07R HX 91  
ALLENDALE FAIR 82 72 69 CALM 30.06R  
   
..SOUTHERN MIDLANDS AND PEE DEE
 
 
 
CITY SKY/WX TMP DP RH WIND PRES REMARKS
 
GEORGETOWN FAIR 81 75 83 CALM 30.06R  
KINGSTREE FAIR 82 77 83 CALM 30.05R HX 91  
ORANGEBURG FAIR 84 73 69 CALM 30.06S HX 90  
6HR MIN TEMP: 84; 6HR MAX TEMP: 93; 6HR PCP: TRACE;  
 
BARNWELL FAIR 82 73 74 CALM 30.07S  
AIKEN FAIR 82 68 61 CALM 30.12S  
MANNING FAIR 82 73 74 CALM 30.05R  
COLUMBIA MOCLDY 85 70 60 W6 30.06R  
6HR MIN TEMP: 85; 6HR MAX TEMP: 96;  
 
SUMTER FAIR 87 74 63 W9 30.05R HX 95  
6HR MIN TEMP: 87; 6HR MAX TEMP: 94;  
 
FLORENCE FAIR 92 72 51 CALM 30.04R HX 99  
6HR MIN TEMP: 92; 6HR MAX TEMP: 99;  
 
MYRTLE BEACH FAIR 86 78 77 S7 30.04S HX 98  
N MYRTLE BEACH FAIR 85 77 77 SW12 30.04R HX 95  
6HR MIN TEMP: 85; 6HR MAX TEMP: 90;  
 

 
 
GAZ063-065-086>088-099>101-113>116-118-119-134>141-150-160100-   
..SOUTHEAST GEORGIA
 
 
 
CITY SKY/WX TMP DP RH WIND PRES REMARKS
 
SAVANNAH ARPT MOCLDY 91 72 53 N3 30.05R HX 98  
6HR MIN TEMP: 91; 6HR MAX TEMP: 97;  
 
HUNTER AAF MOCLDY 92 72 52 SE5 30.03R HX 99  
6HR MIN TEMP: 91; 6HR MAX TEMP: 97;  
 
FORT STEWART FAIR 89 77 66 CALM 30.04R HX 101  
6HR MIN TEMP: 89; 6HR MAX TEMP: 99;  
 
STATESBORO FAIR 87 73 61 CALM 30.07R HX 94  
SYLVANIA FAIR 87 75 66 CALM 30.08R HX 97  
CLAXTON FAIR 87 80 80 CALM 30.07R HX 102  
MILLEN FAIR 88 70 54 NE5 30.07R HX 93  
   
..CSRA, CENTRAL AND FAR SOUTHEAST GEORGIA
 
 
 
CITY SKY/WX TMP DP RH WIND PRES REMARKS
 
THOMSON FAIR 85 77 76 CALM 30.09R HX 95  
AUGUSTA-BUSH FAIR 88 76 67 CALM 30.06R HX 99  
6HR MIN TEMP: 88; 6HR MAX TEMP: 100; 6HR PCP: TRACE;  
 
AUGUSTA-DANIEL FAIR 94 64 37 NE3 30.09R HX 95  
SWAINSBORO FAIR 86 68 54 CALM 30.09R  
VIDALIA FAIR 91 55 29 CALM 30.08R  
EASTMAN FAIR 88 66 49 CALM 30.12R HX 90  
HAZLEHURST FAIR 90 67 46 CALM 30.07R HX 93  
ALMA FAIR 91 69 48 W3 30.07R HX 96  
6HR MIN TEMP: 91; 6HR MAX TEMP: 97;  
 
WAYCROSS FAIR 91 57 31 W5 30.08R HX 90  
JESUP CLOUDY 90 64 43 W15 30.08R HX 91  
BAXLEY FAIR 86 72 62 CALM 30.08R HX 92  
BRUNSWICK FAIR 88 77 69 S7 30.06R HX 99  
SAINT SIMONS FAIR 88 74 63 S8 30.06R HX 96  
6HR MIN TEMP: 88; 6HR MAX TEMP: 99;  
 

 
 
SCZ027-028-034-036>038-045-046-048>050-GAZ119-141-160100-   
..LAKE AND SUPPLEMENTAL COASTAL OBSERVATIONS
 
 
 
STATION/POSITION TIME TEMP WIND PRES WAVE SWELL
 
AIR SEA DIR/SP/G HT/PER HT/PER/DIR  
(UTC) (F) (DEG/KT/KT) (MB) (FT/S) (FT/S/D)  
WINYAH BAY 2345 88 250/ 3 1017.0S  
LAKE MURRAY 2320 84 210/ 4/ 5 1017.3R  
ACE BASIN NERRS 2345 87 130/ 1 1017.0S  
FORT PULASKI 2342 89 86 170/ 4/ 5 1018.1R  
SAPELO ISLAND 0000 92 20/ 2 1018.0  
 

 
 
ANZ835-935-AMZ111-154-330-350-352-354-370-450-454-472-160100-   
..C-MAN AND BUOY OBSERVATIONS
 
 
 
STATION/POSITION TIME TEMP WIND PRES WAVE SWELL
 
AIR SEA DIR/SP/G HT/PER HT/PER/DIR  
(UTC) (F) (DEG/KT/KT) (MB) (FT/S) (FT/S/D)  
BUOY 41004 0010 86 87 260/ 4/ 6 1017.5  
BUOY 41008 2350 86 86 190/ 12/ 12 1017.5R 1/ 8  
FOLLY BEACH CMAN 0000 85 240/ 3/ 3 1018.1R  
CAPERS NEARSHORE 0008 84 85 140/ 2/ 4 1017.2F  
FRIPP NEARSHORE 0008 88 89 210/ 8/ 12 1017.4R  
 
 
STATION/POSITION TIME TEMP WIND PRES WAVE SWELL
 
AIR SEA DIR/SP/G HT/PER HT/PER/DIR  
(UTC) (F) (DEG/KT/KT) (MB) (FT/S) (FT/S/D)  
5E ST. MARYS GA 0000 84 N/A 1/ 9  
FRYING PAN BUOY 0010 85 85 250/ 6/ 8 1017.2  
BUOY 41025 0010 85 84 210/ 8/ 10 1017.3  
CAPE LOOKOUT NC 0000 85 180/ 7/ 8 1017.4R  
BUOY 41002 0010 83 83 240/ 12/ 14 1018.8  
BUOY 41010 0010 85 85 270/ 2/ 2 N/A  
ST AUGUSTINE FL 0000 82 79 180/ 8/ 8 1018.8R  
 

 
 
 
CLICK HERE TO GO TO PREVIOUS BULLETINS.

The Nexlab SC Page
The Nexlab GA Page Main Text Page